Regional Weather Roundup
Issued by NWS Kansas City/Pleasant Hill, MO

Home | Current Version | Previous Version | Text Only | Print | Product List | Glossary On
Versions: 1 2 3 4 5 6 7 8 9 10 11 12 13 14 15 16 17 18 19 20 21 22 23 24 25 26 27 28 29 30 31 32 33 34 35 36 37 38 39 40 41 42 43 44 45 46 47 48 49 50
000
ASUS43 KEAX 260304
RWREAX

WEATHER ROUNDUP FOR EASTERN KANSAS AND NORTHWEST MISSOURI
NATIONAL WEATHER SERVICE KANSAS CITY/PLEASANT HILL MO
1000 PM CDT MON MAY 25 2015

KSZ040-057-103>105-MOZ028-029-037-043-260400-
...KANSAS CITY METROPOLITAN AREA...

CITY           SKY/WX    TMP DP  RH WIND       PRES   REMARKS
K.C. INTL      CLOUDY    65  59  81 N13       29.85S
K.C. DOWNTOWN  CLOUDY    74  64  71 E5        29.81F
LEES SUMMIT    CLOUDY    73  65  75 E3        29.83F
OLATHE - IXD   CLOUDY    71  65  81 SE6       29.83F
OLATHE - OJC   CLOUDY    71  66  84 SE5       29.82F
LAWRENCE       CLOUDY    72  65  78 SE8       29.81F

$$

MOZ001>008-011>017-020>025-030>033-038>040-044>046-053-054-260400-
...NORTHERN AND CENTRAL MISSOURI...

CITY           SKY/WX    TMP DP  RH WIND       PRES   REMARKS
ST. JOSEPH     CLOUDY    61  59  93 N6        29.85F
MOSBY          CLOUDY    70  66  88 CALM      29.83F
WARRENSBURG    CLOUDY    72  64  78 SE7       29.83F
WHITEMAN AFB   CLOUDY    73  66  79 SE5       29.83F
CLINTON        CLOUDY    73  68  83 E5        29.84F
SEDALIA        CLOUDY    74  65  73 SE9       29.86F
WARSAW         NOT AVBL
CHILLICOTHE      N/A     71  66  84 CALM      29.86R
KIRKSVILLE     PTCLDY    70  66  87 SE8       29.89R

$$

MOZ041-047>049-056>058-063>065-088>090-097-260400-
...EASTERN AND SOUTHERN MISSOURI...

CITY           SKY/WX    TMP DP  RH WIND       PRES   REMARKS
ST. LOUIS INTL MOCLDY    77  66  68 SE12      29.95S
SPIRIT OF STL  MOCLDY    75  66  73 VRB3      29.92F
COLUMBIA       CLOUDY    73  64  73 SE9       29.89F
JEFFERSON CITY CLOUDY    74  64  71 SE8       29.88S
ROLLA          CLOUDY    71  65  81 SE8       29.91S
OSAGE BEACH    CLOUDY    73  63  68 SE6       29.88R
SPRINGFIELD    LGT RAIN  72  65  78 SE14      29.86S
BRANSON        TSTM      63  61  94 E10       29.90S
JOPLIN         LGT RAIN  64  62  93 SE6       29.84F
WEST PLAINS    CLOUDY    72  66  81 SE7       29.95R

$$

IAZ060-094-KSZ022-034>040-054-083-096-NEZ052-066-093-260400-
...KANSAS...SOUTHEAST NEBRASKA AND IOWA...

CITY           SKY/WX    TMP DP  RH WIND       PRES   REMARKS
TOPEKA         CLOUDY    67  58  72 N14       29.81F
MANHATTAN      CLOUDY    62  59  90 CALM      29.77F
EMPORIA        CLOUDY    67  60  78 SW18      29.81R
CHANUTE        CLOUDY    64  60  87 S8        29.81F
WICHITA        LGT RAIN  61  57  87 E12       29.83R
OMAHA          CLOUDY    66  60  81 S10       29.80R
LINCOLN        CLOUDY    64  55  72 S13       29.80R
FALLS CITY     LGT RAIN  61  59  93 SE10      29.82F
LAMONI         LGT RAIN  65  58  78 W10       29.90R
DES MOINES     LGT RAIN  66  60  81 SW24G31   29.84R

$$



USA.gov is the U.S. government's official web portal to all federal, state and local government web resources and services.